FW0770 Weather Reports


Display with metric or nautical units.
time (UTC)temp
F
wind
direction
speed
MPH
gust
MPH
rain 1hr
in
rain 24hr
in
rain mn
in
humidity
%
barometer
mb
20190121180504 19 185 2.0 5.0 0.00 0.05 0.00 57 1034.4
20190121180005 18 266 5.0 8.0 0.00 0.05 0.00 55 1034.4
20190121175504 20 18 5.0 9.0 0.00 0.05 0.00 60 1034.4
20190121175004 20 327 4.0 8.0 0.00 0.05 0.00 54 1034.4
20190121174504 21 249 3.0 7.0 0.00 0.05 0.00 56 1034.5
20190121174004 21 223 1.0 5.0 0.00 0.05 0.00 55 1034.6
20190121173504 20 72 1.0 5.0 0.00 0.05 0.00 52 1034.7
20190121173004 20 76 2.0 6.0 0.00 0.05 0.00 51 1034.8
20190121172504 21 326 3.0 7.0 0.00 0.05 0.00 56 1034.8
20190121172005 20 323 5.0 7.0 0.00 0.05 0.00 54 1034.9
20190121171504 20 240 0.0 6.0 0.00 0.05 0.00 55 1035.0
20190121171004 18 334 3.0 6.0 0.00 0.05 0.00 56 1035.0
20190121170504 18 24 3.0 6.0 0.00 0.05 0.00 53 1035.1
20190121170004 19 323 3.0 7.0 0.00 0.05 0.00 60 1035.1
20190121165505 16 295 3.0 8.0 0.00 0.05 0.05 58 1035.1
20190121165005 15 315 6.0 8.0 0.00 0.05 0.05 84 1023.3
20190120234003 15 318 6.0 9.0 0.00 0.05 0.05 83 1023.2
20190120233504 15 316 6.0 12.0 0.00 0.05 0.05 83 1023.2
20190120233005 15 299 9.0 12.0 0.00 0.05 0.05 84 1023.1
20190120232503 16 311 7.0 10.0 0.00 0.05 0.05 86 1023.0
20190120232003 16 308 6.0 16.0 0.00 0.05 0.05 84 1022.9
20190120231505 17 307 6.0 10.0 0.00 0.05 0.05 85 1022.8
20190120231003 17 297 8.0 16.0 0.00 0.05 0.05 88 1022.7
20190120230504 17 291 8.0 16.0 0.00 0.05 0.05 87 1022.7
20190120230004 17 280 8.0 13.0 0.00 0.05 0.05 87 1022.5
20190120225504 17 282 11.0 16.0 0.00 0.05 0.05 86 1022.5
20190120225004 17 316 7.0 14.0 0.00 0.05 0.05 84 1022.3
20190120224504 17 289 9.0 15.0 0.00 0.05 0.05 86 1022.2
20190120224006 25 290 11.0 15.0 0.00 0.05 0.05 83 1016.5